Track OPS 7613 (P/L 1) now! 10-day predictions OPS 7613 (P/L 1) is classified as:
1 04256U 69082B 22227.05817328 .00000075 00000-0 89339-4 0 9999 2 04256 70.0096 95.2644 0016962 101.2253 259.0762 13.98470489694383